Time,TemperatureF,DewpointF,PressureIn,WindDirection,WindDirectionDegrees,WindSpeedMPH,WindSpeedGustMPH,Humidity,HourlyPrecipIn,Conditions,Clouds,dailyrainin,SoftwareType,DateUTC
2013-07-10 00:01:00,68.0,42.0,30.26,North,359,0.0,1.0,39,0.00,,,0.00,,2013-07-10 06:01:00,
2013-07-10 00:11:00,68.0,43.0,30.26,North,360,0.0,0.0,40,0.00,,,0.00,,2013-07-10 06:11:00,
2013-07-10 00:21:00,67.0,43.0,30.27,North,360,0.0,1.0,41,0.00,,,0.00,,2013-07-10 06:21:00,
2013-07-10 00:32:00,67.0,42.0,30.27,North,360,0.0,1.0,40,0.00,,,0.00,,2013-07-10 06:32:00,
2013-07-10 00:42:00,67.0,43.0,30.27,North,360,0.0,1.0,41,0.00,,,0.00,,2013-07-10 06:42:00,
2013-07-10 00:52:00,67.0,42.0,30.27,North,360,0.0,1.0,40,0.00,,,0.00,,2013-07-10 06:52:00,
2013-07-10 01:01:00,66.0,43.0,30.27,North,360,0.0,0.0,43,0.00,,,0.00,,2013-07-10 07:01:00,
2013-07-10 01:11:00,66.0,43.0,30.27,North,360,0.0,0.0,44,0.00,,,0.00,,2013-07-10 07:11:00,
2013-07-10 01:22:00,66.0,43.0,30.27,North,360,0.0,0.0,44,0.00,,,0.00,,2013-07-10 07:22:00,
2013-07-10 01:33:00,65.0,44.0,30.28,North,2,0.0,1.0,46,0.00,,,0.00,,2013-07-10 07:33:00,
2013-07-10 01:43:00,65.0,44.0,30.28,North,360,0.0,0.0,47,0.00,,,0.00,,2013-07-10 07:43:00,
2013-07-10 01:53:00,64.0,44.0,30.28,North,360,0.0,1.0,48,0.00,,,0.00,,2013-07-10 07:53:00,
2013-07-10 02:01:00,64.0,45.0,30.27,North,359,0.0,1.0,50,0.00,,,0.00,,2013-07-10 08:01:00,
2013-07-10 02:11:00,63.0,45.0,30.27,North,360,0.0,1.0,52,0.00,,,0.00,,2013-07-10 08:11:00,
2013-07-10 02:22:00,63.0,45.0,30.27,North,360,0.0,1.0,52,0.00,,,0.00,,2013-07-10 08:22:00,
2013-07-10 02:33:00,63.0,47.0,30.28,North,360,0.0,1.0,56,0.00,,,0.00,,2013-07-10 08:33:00,
2013-07-10 02:53:00,63.0,48.0,30.28,North,360,0.0,1.0,58,0.00,,,0.00,,2013-07-10 08:53:00,
2013-07-10 03:02:00,63.0,49.0,30.27,North,1,0.0,0.0,61,0.00,,,0.00,,2013-07-10 09:02:00,
2013-07-10 03:12:00,63.0,50.0,30.27,North,360,0.0,1.0,62,0.00,,,0.00,,2013-07-10 09:12:00,
2013-07-10 03:22:00,63.0,50.0,30.27,North,359,0.0,0.0,62,0.00,,,0.00,,2013-07-10 09:22:00,
2013-07-10 03:32:00,63.0,49.0,30.27,North,360,0.0,0.0,61,0.00,,,0.00,,2013-07-10 09:32:00,
2013-07-10 03:42:00,63.0,49.0,30.25,North,356,0.0,0.0,61,0.00,,,0.00,,2013-07-10 09:42:00,
2013-07-10 03:52:00,63.0,50.0,30.25,North,360,0.0,0.0,62,0.00,,,0.00,,2013-07-10 09:52:00,
2013-07-10 04:01:00,62.0,47.0,30.25,North,360,0.0,0.0,59,0.00,,,0.00,,2013-07-10 10:01:00,
2013-07-10 04:13:00,62.0,48.0,30.24,North,360,0.0,0.0,60,0.00,,,0.00,,2013-07-10 10:13:00,
2013-07-10 04:23:00,62.0,47.0,30.24,North,360,0.0,1.0,58,0.00,,,0.00,,2013-07-10 10:23:00,
2013-07-10 04:32:00,62.0,47.0,30.25,North,359,0.0,0.0,57,0.00,,,0.00,,2013-07-10 10:32:00,
2013-07-10 04:50:00,-999.0,-99.9,30.25,North,358,0.0,0.0,-999,-99.99,,,-99.99,,2013-07-10 10:50:00,
2013-07-10 05:00:00,-999.0,-99.9,30.24,North,360,0.0,1.0,-999,-99.99,,,-99.99,,2013-07-10 11:00:00,
2013-07-10 05:11:00,61.0,46.0,30.22,North,360,0.0,1.0,58,0.00,,,0.00,,2013-07-10 11:11:00,
2013-07-10 05:22:00,60.0,45.0,30.22,North,360,0.0,1.0,58,0.00,,,0.00,,2013-07-10 11:22:00,
2013-07-10 05:33:00,61.0,45.0,30.23,North,360,0.0,1.0,56,0.00,,,0.00,,2013-07-10 11:33:00,
2013-07-10 05:43:00,61.0,46.0,30.23,North,360,0.0,0.0,57,0.00,,,0.00,,2013-07-10 11:43:00,
2013-07-10 05:52:00,60.0,46.0,30.23,North,360,0.0,1.0,59,0.00,,,0.00,,2013-07-10 11:52:00,
2013-07-10 06:01:00,60.0,45.0,30.23,North,360,0.0,0.0,57,0.00,,,0.00,,2013-07-10 12:01:00,
2013-07-10 06:11:00,60.0,44.0,30.23,North,360,0.0,1.0,56,0.00,,,0.00,,2013-07-10 12:11:00,
2013-07-10 06:22:00,60.0,44.0,30.24,North,360,0.0,0.0,56,0.00,,,0.00,,2013-07-10 12:22:00,
2013-07-10 06:33:00,60.0,45.0,30.24,North,360,0.0,1.0,58,0.00,,,0.00,,2013-07-10 12:33:00,
2013-07-10 06:43:00,61.0,46.0,30.23,North,360,0.0,1.0,57,0.00,,,0.00,,2013-07-10 12:43:00,
2013-07-10 06:52:00,61.0,45.0,30.23,North,360,0.0,1.0,56,0.00,,,0.00,,2013-07-10 12:52:00,
2013-07-10 07:01:00,62.0,46.0,30.23,North,360,0.0,0.0,56,0.00,,,0.00,,2013-07-10 13:01:00,
2013-07-10 07:11:00,62.0,46.0,30.23,North,360,0.0,0.0,56,0.00,,,0.00,,2013-07-10 13:11:00,
2013-07-10 07:21:00,64.0,47.0,30.25,North,360,0.0,0.0,53,0.00,,,0.00,,2013-07-10 13:21:00,
2013-07-10 07:32:00,64.0,47.0,30.23,North,360,0.0,0.0,53,0.00,,,0.00,,2013-07-10 13:32:00,
2013-07-10 07:43:00,66.0,50.0,30.24,North,360,0.0,1.0,56,0.00,,,0.00,,2013-07-10 13:43:00,
2013-07-10 07:52:00,66.0,48.0,30.24,North,360,0.0,1.0,53,0.00,,,0.00,,2013-07-10 13:52:00,
2013-07-10 08:01:00,67.0,48.0,30.25,North,360,1.0,4.0,51,0.00,,,0.00,,2013-07-10 14:01:00,
2013-07-10 08:11:00,67.0,48.0,30.25,North,359,1.0,4.0,50,0.00,,,0.00,,2013-07-10 14:11:00,
2013-07-10 08:22:00,67.0,50.0,30.23,North,360,0.0,2.0,55,0.00,,,0.00,,2013-07-10 14:22:00,
2013-07-10 08:33:00,69.0,51.0,30.23,North,359,0.0,4.0,53,0.00,,,0.00,,2013-07-10 14:33:00,
2013-07-10 08:43:00,69.0,52.0,30.23,North,2,2.0,4.0,54,0.00,,,0.00,,2013-07-10 14:43:00,
2013-07-10 08:53:00,71.0,54.0,30.24,NNE,27,1.0,5.0,54,0.00,,,0.00,,2013-07-10 14:53:00,
2013-07-10 09:01:00,71.0,54.0,30.24,NE,38,2.0,4.0,54,0.00,,,0.00,,2013-07-10 15:01:00,
2013-07-10 09:11:00,72.0,54.0,30.25,NE,40,3.0,9.0,53,0.00,,,0.00,,2013-07-10 15:11:00,
2013-07-10 09:22:00,72.0,54.0,30.25,NNE,29,0.0,7.0,53,0.00,,,0.00,,2013-07-10 15:22:00,
2013-07-10 09:34:00,72.0,53.0,30.25,NE,40,5.0,7.0,52,0.00,,,0.00,,2013-07-10 15:34:00,
2013-07-10 09:42:00,72.0,54.0,30.25,NE,40,0.0,10.0,53,0.00,,,0.00,,2013-07-10 15:42:00,
2013-07-10 09:52:00,73.0,54.0,30.25,NE,49,2.0,6.0,52,0.00,,,0.00,,2013-07-10 15:52:00,
2013-07-10 10:01:00,74.0,55.0,30.26,ENE,61,1.0,9.0,52,0.00,,,0.00,,2013-07-10 16:01:00,
2013-07-10 10:11:00,74.0,54.0,30.26,ENE,67,4.0,4.0,49,0.00,,,0.00,,2013-07-10 16:11:00,
2013-07-10 10:22:00,74.0,53.0,30.26,NNE,20,0.0,7.0,48,0.00,,,0.00,,2013-07-10 16:22:00,
2013-07-10 10:33:00,75.0,55.0,30.26,NNE,18,0.0,10.0,49,0.00,,,0.00,,2013-07-10 16:33:00,
2013-07-10 10:44:00,75.0,55.0,30.26,NNE,25,2.0,10.0,49,0.00,,,0.00,,2013-07-10 16:44:00,
2013-07-10 10:53:00,76.0,55.0,30.25,NE,41,2.0,6.0,48,0.00,,,0.00,,2013-07-10 16:53:00,
2013-07-10 11:02:00,76.0,55.0,30.25,North,356,1.0,7.0,48,0.00,,,0.00,,2013-07-10 17:02:00,
2013-07-10 11:11:00,77.0,55.0,30.25,NE,44,0.0,7.0,46,0.00,,,0.00,,2013-07-10 17:11:00,
2013-07-10 11:23:00,79.0,53.0,30.23,NE,38,1.0,4.0,41,0.00,,,0.00,,2013-07-10 17:23:00,
2013-07-10 11:32:00,81.0,53.0,30.22,South,171,1.0,3.0,38,0.00,,,0.00,,2013-07-10 17:32:00,
2013-07-10 11:42:00,81.0,54.0,30.22,NE,49,0.0,5.0,39,0.00,,,0.00,,2013-07-10 17:42:00,
2013-07-10 11:52:00,79.0,55.0,30.22,NE,52,2.0,9.0,44,0.00,,,0.00,,2013-07-10 17:52:00,
2013-07-10 12:02:00,80.0,53.0,30.24,NE,43,2.0,7.0,40,0.00,,,0.00,,2013-07-10 18:02:00,
2013-07-10 12:11:00,80.0,53.0,30.24,NE,48,4.0,7.0,40,0.00,,,0.00,,2013-07-10 18:11:00,
2013-07-10 12:21:00,81.0,52.0,30.22,ENE,63,0.0,7.0,37,0.00,,,0.00,,2013-07-10 18:21:00,
2013-07-10 12:32:00,81.0,56.0,30.22,NE,47,2.0,6.0,42,0.00,,,0.00,,2013-07-10 18:32:00,
2013-07-10 12:44:00,80.0,55.0,30.22,NE,45,3.0,10.0,42,0.00,,,0.00,,2013-07-10 18:44:00,
2013-07-10 12:52:00,76.0,54.0,30.24,NNE,21,0.0,7.0,47,0.00,,,0.00,,2013-07-10 18:52:00,
2013-07-10 13:01:00,76.0,61.0,30.25,NNE,21,0.0,4.0,59,0.01,,,0.01,,2013-07-10 19:01:00,
2013-07-10 13:11:00,72.0,62.0,30.20,North,349,1.0,4.0,70,0.02,,,0.02,,2013-07-10 19:11:00,
2013-07-10 13:32:00,72.0,60.0,30.19,SW,227,1.0,12.0,66,0.02,,,0.02,,2013-07-10 19:32:00,
2013-07-10 13:42:00,73.0,61.0,30.19,NNE,25,3.0,6.0,65,0.02,,,0.02,,2013-07-10 19:42:00,
2013-07-10 13:52:00,75.0,59.0,30.20,West,259,1.0,5.0,58,0.02,,,0.02,,2013-07-10 19:52:00,
2013-07-10 14:01:00,76.0,59.0,30.18,WSW,246,3.0,5.0,56,0.02,,,0.02,,2013-07-10 20:01:00,
2013-07-10 14:11:00,75.0,58.0,30.19,West,259,0.0,5.0,55,0.00,,,0.02,,2013-07-10 20:11:00,
2013-07-10 14:22:00,75.0,57.0,30.19,West,259,2.0,5.0,54,0.00,,,0.02,,2013-07-10 20:22:00,
2013-07-10 14:32:00,77.0,57.0,30.16,West,259,0.0,5.0,50,0.00,,,0.02,,2013-07-10 20:32:00,
2013-07-10 14:43:00,79.0,57.0,30.16,West,259,0.0,4.0,47,0.00,,,0.02,,2013-07-10 20:43:00,
2013-07-10 14:52:00,81.0,55.0,30.16,WSW,258,0.0,2.0,41,0.00,,,0.02,,2013-07-10 20:52:00,
2013-07-10 15:01:00,84.0,54.0,30.16,SW,217,2.0,6.0,36,0.00,,,0.02,,2013-07-10 21:01:00,
2013-07-10 15:11:00,84.0,53.0,30.16,SW,230,0.0,6.0,35,0.00,,,0.02,,2013-07-10 21:11:00,
2013-07-10 15:22:00,85.0,54.0,30.16,West,264,3.0,5.0,35,0.00,,,0.02,,2013-07-10 21:22:00,
2013-07-10 15:32:00,85.0,53.0,30.16,West,263,0.0,6.0,33,0.00,,,0.02,,2013-07-10 21:32:00,
2013-07-10 15:41:00,86.0,52.0,30.16,SSE,159,0.0,6.0,31,0.00,,,0.02,,2013-07-10 21:41:00,
2013-07-10 15:52:00,88.0,52.0,30.13,SW,225,3.0,4.0,29,0.00,,,0.02,,2013-07-10 21:52:00,
2013-07-10 16:11:00,88.0,54.0,30.14,NE,54,2.0,10.0,31,0.00,,,0.02,,2013-07-10 22:11:00,
2013-07-10 16:21:00,87.0,53.0,30.14,NE,50,1.0,12.0,31,0.00,,,0.02,,2013-07-10 22:21:00,
2013-07-10 16:33:00,86.0,54.0,30.12,NE,45,2.0,11.0,33,0.00,,,0.02,,2013-07-10 22:33:00,
2013-07-10 16:42:00,86.0,54.0,30.12,NE,50,4.0,7.0,33,0.00,,,0.02,,2013-07-10 22:42:00,
2013-07-10 16:53:00,86.0,55.0,30.12,NE,46,0.0,6.0,35,0.00,,,0.02,,2013-07-10 22:53:00,
2013-07-10 17:01:00,86.0,54.0,30.12,NE,50,0.0,9.0,34,0.00,,,0.02,,2013-07-10 23:01:00,
2013-07-10 17:11:00,86.0,54.0,30.12,NE,52,0.0,9.0,34,0.00,,,0.02,,2013-07-10 23:11:00,
2013-07-10 17:22:00,85.0,53.0,30.11,NE,51,0.0,3.0,33,0.00,,,0.02,,2013-07-10 23:22:00,
2013-07-10 17:32:00,85.0,53.0,30.09,NE,52,1.0,5.0,33,0.00,,,0.02,,2013-07-10 23:32:00,
2013-07-10 17:43:00,85.0,53.0,30.09,NE,52,1.0,5.0,33,0.00,,,0.02,,2013-07-10 23:43:00,
2013-07-10 17:52:00,86.0,50.0,30.11,ENE,64,1.0,3.0,29,0.00,,,0.02,,2013-07-10 23:52:00,
2013-07-10 18:01:00,87.0,50.0,30.10,ENE,64,1.0,3.0,28,0.00,,,0.02,,2013-07-11 00:01:00,
2013-07-10 18:11:00,87.0,49.0,30.10,ENE,65,1.0,3.0,27,0.00,,,0.02,,2013-07-11 00:11:00,
2013-07-10 18:22:00,86.0,51.0,30.09,NE,51,1.0,3.0,30,0.00,,,0.02,,2013-07-11 00:22:00,
2013-07-10 18:32:00,86.0,51.0,30.09,ENE,57,0.0,3.0,30,0.00,,,0.02,,2013-07-11 00:32:00,
2013-07-10 18:42:00,86.0,51.0,30.08,SSE,147,0.0,3.0,30,0.00,,,0.02,,2013-07-11 00:42:00,
2013-07-10 18:52:00,86.0,54.0,30.06,West,273,0.0,5.0,33,0.00,,,0.02,,2013-07-11 00:52:00,
2013-07-10 19:01:00,86.0,50.0,30.06,WSW,239,0.0,3.0,29,0.00,,,0.02,,2013-07-11 01:01:00,
2013-07-10 19:11:00,86.0,51.0,30.06,West,265,1.0,3.0,30,0.00,,,0.02,,2013-07-11 01:11:00,
2013-07-10 19:22:00,86.0,50.0,30.06,West,271,0.0,3.0,29,0.00,,,0.02,,2013-07-11 01:22:00,
2013-07-10 19:32:00,86.0,50.0,30.06,WSW,247,1.0,4.0,29,0.00,,,0.02,,2013-07-11 01:32:00,
2013-07-10 19:43:00,86.0,50.0,30.06,WSW,247,0.0,4.0,29,0.00,,,0.02,,2013-07-11 01:43:00,
2013-07-10 19:52:00,86.0,50.0,30.06,WSW,242,0.0,6.0,29,0.00,,,0.02,,2013-07-11 01:52:00,
2013-07-10 20:02:00,85.0,51.0,30.07,WSW,243,0.0,4.0,31,0.00,,,0.02,,2013-07-11 02:02:00,
2013-07-10 20:11:00,84.0,53.0,30.07,WSW,243,0.0,3.0,34,0.00,,,0.02,,2013-07-11 02:11:00,
2013-07-10 20:22:00,83.0,52.0,30.06,WSW,244,0.0,2.0,35,0.00,,,0.02,,2013-07-11 02:22:00,
2013-07-10 20:32:00,81.0,53.0,30.07,WSW,244,0.0,1.0,38,0.00,,,0.02,,2013-07-11 02:32:00,
2013-07-10 20:43:00,80.0,53.0,30.07,WSW,244,0.0,1.0,39,0.00,,,0.02,,2013-07-11 02:43:00,
2013-07-10 20:53:00,79.0,51.0,30.08,WSW,244,0.0,1.0,38,0.00,,,0.02,,2013-07-11 02:53:00,
2013-07-10 21:01:00,78.0,50.0,30.08,WSW,244,0.0,1.0,38,0.00,,,0.02,,2013-07-11 03:01:00,
2013-07-10 21:11:00,78.0,50.0,30.08,WSW,244,0.0,1.0,37,0.00,,,0.02,,2013-07-11 03:11:00,
2013-07-10 21:21:00,77.0,52.0,30.11,SW,224,0.0,5.0,42,0.00,,,0.02,,2013-07-11 03:21:00,
2013-07-10 21:33:00,76.0,52.0,30.10,SSW,211,6.0,6.0,44,0.00,,,0.02,,2013-07-11 03:33:00,
2013-07-10 21:42:00,76.0,52.0,30.10,SSW,194,0.0,6.0,44,0.00,,,0.02,,2013-07-11 03:42:00,
2013-07-10 21:52:00,75.0,52.0,30.12,SSW,193,0.0,4.0,44,0.00,,,0.02,,2013-07-11 03:52:00,
2013-07-10 22:01:00,75.0,52.0,30.12,ENE,60,0.0,4.0,45,0.00,,,0.02,,2013-07-11 04:01:00,
2013-07-10 22:12:00,73.0,52.0,30.13,ENE,60,0.0,3.0,48,0.00,,,0.02,,2013-07-11 04:12:00,
2013-07-10 22:22:00,73.0,53.0,30.13,ENE,60,0.0,4.0,49,0.00,,,0.02,,2013-07-11 04:22:00,
2013-07-10 22:32:00,71.0,52.0,30.12,ENE,60,0.0,0.0,52,0.00,,,0.02,,2013-07-11 04:32:00,
2013-07-10 22:42:00,70.0,54.0,30.13,ENE,60,1.0,3.0,56,0.00,,,0.02,,2013-07-11 04:42:00,
2013-07-10 22:53:00,69.0,54.0,30.13,NE,40,3.0,8.0,58,0.00,,,0.02,,2013-07-11 04:53:00,
2013-07-10 23:01:00,69.0,55.0,30.16,NE,40,0.0,5.0,60,0.00,,,0.02,,2013-07-11 05:01:00,
2013-07-10 23:12:00,68.0,54.0,30.16,NE,40,0.0,4.0,61,0.00,,,0.02,,2013-07-11 05:12:00,
2013-07-10 23:22:00,67.0,54.0,30.16,NE,40,0.0,0.0,62,0.00,,,0.02,,2013-07-11 05:22:00,
2013-07-10 23:32:00,67.0,54.0,30.15,NE,39,1.0,0.0,63,0.00,,,0.02,,2013-07-11 05:32:00,
2013-07-10 23:43:00,67.0,54.0,30.14,NE,39,2.0,3.0,62,0.00,,,0.02,,2013-07-11 05:43:00,
2013-07-10 23:52:00,67.0,53.0,30.14,NE,39,0.0,3.0,61,0.00,,,0.02,,2013-07-11 05:52:00,